Location: Newark
(43.4306°N, 0.3089°E)
Time: 04:25:39
(UTC+00:00)

A-11 Canister half - Pass Details

Date: 30 August 2019
Orbit: 1514 x 1686 km, 47.2° (Epoch: 15 September)

Event Time Altitude Azimuth Distance (km) Brightness Sun altitude
Rises 19:05:58 0° 279° (W) 4,693 13.9 -5.7°
Reaches altitude 10° 19:09:00 10° 282° (WNW) 3,727 12.8 -6.2°
Maximum altitude 19:18:28 73° 7° (N) 1,650 9.2 -7.8°
Drops below altitude 10° 19:28:18 10° 92° (E) 3,860 10.5 -9.5°
Enters shadow 19:28:44 - 93° (E) 3,993 10.6 -9.6°
